Back to catalog

STARLINK-3652

AliveCommunicationsVLEO
NORAD 51991·PAYLOAD·🇺🇸 United States

Launched Mar 9, 2022 from Cape Canaveral Space Force Station

Loading…

Next Passes (next 24 hours)

TLE

FreshSource: CelesTrak SupGP

Epoch: Sep 14, 2026, 22:03 UTC

1 51991C 22025AM  26257.91923611  .00045295  00000+0  13378-2 0  2575
2 51991  53.1572 253.8665 0001334  84.6264 310.1638 15.34378573    15

Track STARLINK-3652 in real time with AllMySat

Download on the App Store